Flag for Canada Weather past 2 weeks in Burlington, Ontario, Canada

Now
16 °F

Cold.


Feels Like: 0 °F
Forecast: 6 / 30 °F
Wind: 16 mph from Northwest

Location: Burlington Piers

Current Time: Jan 30, 2015 at 2:20:54 PM

Latest Report: Jan 30, 2015 at 2:00 PM


Visibility: N/A

Pressure: 30.30 "Hg

Humidity: 50%

Dew point: 0 °F

Location of BurlingtonLocation

Historic Weather in Burlington — Graph

°F

Burlington temperature yesterday

Maximum temperature yesterday: 32 °F (at 12:00 PM)
Minimum temperature yesterday: 21 °F (at 12:00 AM)
Average temperature yesterday: 28 °F

Past Weeks' High & Low Weather Summary

 TemperatureHumidityPressure
High44 °F (Jan 18, 4:00 AM)95% (Jan 29, 6:00 PM)30.40 "Hg (Jan 29, 6:00 PM)
Low8 °F (Jan 28, 8:00 AM)32% (Jan 16, 2:00 PM)29.49 "Hg (Jan 24, 3:00 PM)
Average25 °F67%30.01 "Hg
* Reported Jan 15 1:00 PM — Jan 30 1:00 PM, Burlington, Weather by CustomWeather, © 2014

Note: Actual official high and low records may vary slightly from our data, if they occured in-between our weather recording intervals... More about our weather records

Advertising

Burlington weather history for previous 24 hours

 ConditionsComfort  
Time TempWeatherWind HumidityBarometerVisibility
1:00 PM
Jan 30
16 °FCold.14 mph49%30.28 "HgN/A
12:00 PM16 °FCold.10 mph52%30.27 "HgN/A
11:00 AM15 °FCold.14 mph55%30.25 "HgN/A
10:00 AM15 °FCold.13 mph63%30.23 "HgN/A
9:00 AM15 °FCold.15 mph61%30.20 "HgN/A
8:00 AM17 °FCold.17 mph63%30.16 "HgN/A
7:00 AM20 °FCold.21 mph62%30.11 "HgN/A
6:00 AM25 °FCold.24 mph70%30.05 "HgN/A
5:00 AM29 °FChilly.3 mph78%30.00 "HgN/A
4:00 AM30 °FChilly.7 mph72%29.97 "HgN/A
3:00 AM31 °FChilly.8 mph72%29.95 "HgN/A
2:00 AM31 °FChilly.8 mph71%29.93 "HgN/A
1:00 AM31 °FChilly.8 mph70%29.90 "HgN/A
12:00 AM31 °FChilly.9 mph75%29.89 "HgN/A
11:00 PM
Jan 29
31 °FChilly.5 mph90%29.86 "HgN/A
10:00 PM30 °FChilly.3 mph94%29.83 "HgN/A
9:00 PM30 °FChilly.5 mph95%29.81 "HgN/A
8:00 PM30 °FChilly.5 mph95%29.79 "HgN/A
7:00 PM31 °FChilly.5 mph95%29.77 "HgN/A
6:00 PM32 °FChilly.3 mph95%29.74 "HgN/A
5:00 PM31 °FChilly.3 mph94%29.72 "HgN/A
4:00 PM31 °FChilly.3 mph92%29.72 "HgN/A
3:00 PM31 °FChilly.6 mph89%29.73 "HgN/A
2:00 PM31 °FChilly.3 mph87%29.75 "HgN/A
Weather by CustomWeather, © 2014

See weather overviewHow to use our weather pages